Time,TemperatureF,DewpointF,PressureIn,WindDirection,WindDirectionDegrees,WindSpeedMPH,WindSpeedGustMPH,Humidity,HourlyPrecipIn,Conditions,Clouds,dailyrainin,SoftwareType,DateUTC
2013-04-09 00:00:00,74.4,68.6,30.03,WNW,292,1.0,6.0,82,0.04,,---,0.03,VWS V14.01,2013-04-09 10:00:00,
2013-04-09 00:30:00,73.4,68.3,30.02,WNW,292,0.0,4.0,84,0.17,,---,0.16,VWS V14.01,2013-04-09 10:30:00,
2013-04-09 01:00:00,72.5,68.1,30.02,WNW,292,0.0,3.0,86,0.16,,---,0.16,VWS V14.01,2013-04-09 11:00:00,
2013-04-09 01:30:00,72.2,68.1,30.02,South,180,0.0,2.0,87,0.13,,---,0.16,VWS V14.01,2013-04-09 11:30:00,
2013-04-09 02:00:00,70.6,66.6,30.00,ESE,112,1.0,8.0,87,0.00,,---,0.16,VWS V14.01,2013-04-09 12:00:00,
2013-04-09 02:30:00,70.7,66.3,29.99,East,90,1.0,5.0,86,0.00,,---,0.16,VWS V14.01,2013-04-09 12:30:00,
2013-04-09 03:00:00,69.6,64.9,29.97,East,90,1.0,7.0,85,0.00,,---,0.16,VWS V14.01,2013-04-09 13:00:00,
2013-04-09 03:30:00,69.9,63.8,29.96,East,90,5.0,10.0,81,0.00,,---,0.16,VWS V14.01,2013-04-09 13:30:00,
2013-04-09 04:00:00,71.1,62.8,29.96,East,90,5.0,12.0,75,0.00,,---,0.16,VWS V14.01,2013-04-09 14:00:00,
2013-04-09 04:30:00,70.6,62.7,29.96,East,90,2.0,8.0,76,0.00,,---,0.16,VWS V14.01,2013-04-09 14:30:00,
2013-04-09 05:00:00,70.4,63.2,29.97,East,90,2.0,8.0,78,0.00,,---,0.16,VWS V14.01,2013-04-09 15:00:00,
2013-04-09 05:30:00,69.4,63.3,29.97,East,90,1.0,8.0,81,0.00,,---,0.16,VWS V14.01,2013-04-09 15:30:00,
2013-04-09 06:00:00,70.8,62.9,29.97,East,90,5.0,13.0,76,0.00,,---,0.16,VWS V14.01,2013-04-09 16:00:00,
2013-04-09 06:30:00,71.8,63.5,29.97,East,90,6.0,15.0,75,0.00,,---,0.16,VWS V14.01,2013-04-09 16:30:00,
2013-04-09 07:00:00,71.9,63.2,29.97,East,90,3.0,9.0,74,0.00,,---,0.16,VWS V14.01,2013-04-09 17:00:00,
2013-04-09 07:30:00,73.7,62.5,29.98,ESE,112,3.0,8.0,68,0.00,,---,0.16,VWS V14.01,2013-04-09 17:30:00,
2013-04-09 08:00:00,76.4,63.3,29.98,SSW,202,2.0,7.0,64,0.00,,---,0.16,VWS V14.01,2013-04-09 18:00:00,
2013-04-09 08:30:00,75.7,63.5,29.99,West,270,3.0,6.0,66,0.00,,---,0.16,VWS V14.01,2013-04-09 18:30:00,
2013-04-09 09:00:00,77.0,66.5,30.00,WNW,292,4.0,7.0,70,0.00,,---,0.16,VWS V14.01,2013-04-09 19:00:00,
2013-04-09 09:30:00,77.2,68.3,30.00,WNW,292,6.0,9.0,74,0.00,,---,0.16,VWS V14.01,2013-04-09 19:30:00,
2013-04-09 10:00:00,78.3,68.5,30.00,West,270,3.0,8.0,72,0.00,,---,0.16,VWS V14.01,2013-04-09 20:00:00,
2013-04-09 10:30:00,78.9,68.7,30.00,West,270,3.0,5.0,71,0.00,,---,0.16,VWS V14.01,2013-04-09 20:30:00,
2013-04-09 11:00:00,78.5,69.9,30.00,West,270,4.0,7.0,75,0.00,,---,0.16,VWS V14.01,2013-04-09 21:00:00,
2013-04-09 11:30:00,78.3,69.7,30.00,West,270,5.0,7.0,75,0.00,,---,0.16,VWS V14.01,2013-04-09 21:30:00,
2013-04-09 12:00:00,78.6,69.6,29.99,West,270,4.0,7.0,74,0.00,,---,0.16,VWS V14.01,2013-04-09 22:00:00,
2013-04-09 12:30:00,78.1,69.1,29.98,West,270,4.0,7.0,74,0.00,,---,0.16,VWS V14.01,2013-04-09 22:30:00,
2013-04-09 13:00:00,79.1,69.3,29.96,West,270,4.0,6.0,72,0.00,,---,0.16,VWS V14.01,2013-04-09 23:00:00,
2013-04-09 13:30:00,79.3,69.5,29.95,West,270,4.0,6.0,72,0.00,,---,0.16,VWS V14.01,2013-04-09 23:30:00,
2013-04-09 14:00:00,79.5,69.7,29.94,West,270,4.0,7.0,72,0.00,,---,0.16,VWS V14.01,2013-04-10 00:00:00,
2013-04-09 14:30:00,79.7,69.5,29.93,West,270,3.0,5.0,71,0.00,,---,0.16,VWS V14.01,2013-04-10 00:30:00,
2013-04-09 15:00:00,79.9,69.2,29.92,West,270,3.0,5.0,70,0.00,,---,0.16,VWS V14.01,2013-04-10 01:00:00,
2013-04-09 15:30:00,80.2,69.5,29.92,West,270,3.0,6.0,70,0.00,,---,0.16,VWS V14.01,2013-04-10 01:30:00,
2013-04-09 16:00:00,78.5,68.7,29.93,West,270,3.0,6.0,72,0.00,,---,0.16,VWS V14.01,2013-04-10 02:00:00,
2013-04-09 16:30:00,78.5,69.1,29.93,West,270,3.0,5.0,73,0.00,,---,0.16,VWS V14.01,2013-04-10 02:30:00,
2013-04-09 17:00:00,78.3,69.3,29.94,West,270,2.0,4.0,74,0.00,,---,0.16,VWS V14.01,2013-04-10 03:00:00,
2013-04-09 17:30:00,78.4,69.8,29.95,West,270,2.0,5.0,75,0.00,,---,0.16,VWS V14.01,2013-04-10 03:30:00,
2013-04-09 18:00:00,77.8,69.2,29.96,West,270,2.0,4.0,75,0.00,,---,0.16,VWS V14.01,2013-04-10 04:00:00,
2013-04-09 18:30:00,77.1,69.0,29.98,West,270,3.0,6.0,76,0.00,,---,0.16,VWS V14.01,2013-04-10 04:30:00,
2013-04-09 19:00:00,77.1,69.0,29.98,WNW,292,4.0,7.0,76,0.00,,---,0.16,VWS V14.01,2013-04-10 05:00:00,
2013-04-09 19:30:00,77.2,69.8,29.99,NW,315,7.0,12.0,78,0.00,,---,0.16,VWS V14.01,2013-04-10 05:30:00,
2013-04-09 20:00:00,77.1,69.7,30.00,NNW,338,11.0,15.0,78,0.00,,---,0.16,VWS V14.01,2013-04-10 06:00:00,
2013-04-09 20:30:00,77.0,69.6,30.01,NNW,338,10.0,14.0,78,0.00,,---,0.16,VWS V14.01,2013-04-10 06:30:00,
2013-04-09 21:00:00,76.9,69.9,30.02,NW,315,8.0,14.0,79,0.00,,---,0.16,VWS V14.01,2013-04-10 07:00:00,
2013-04-09 21:30:00,76.8,69.8,30.03,NW,315,9.0,14.0,79,0.00,,---,0.16,VWS V14.01,2013-04-10 07:30:00,
2013-04-09 22:00:00,76.8,70.2,30.04,NNW,338,11.0,16.0,80,0.00,,---,0.16,VWS V14.01,2013-04-10 08:00:00,
2013-04-09 22:30:00,76.6,70.0,30.04,NNW,338,8.0,12.0,80,0.00,,---,0.16,VWS V14.01,2013-04-10 08:30:00,
2013-04-09 23:00:00,76.4,69.4,30.04,NW,315,5.0,8.0,79,0.00,,---,0.16,VWS V14.01,2013-04-10 09:00:00,
2013-04-09 23:30:00,76.2,69.6,30.03,NW,315,3.0,6.0,80,0.00,,---,0.16,VWS V14.01,2013-04-10 09:30:00,